Rome, OR

9:56 PM MDT on September 20, 2017 (GMT -0600)
Rome State

Weather History for KREO - December, 2012

Change the Weather History Date:

Monday, December 31, 2012

  Actual Average Record
Temperature  
Mean Temperature 5 °F 28 °F  
Max Temperature 18 °F 37 °F 58 °F (1996)
Min Temperature -8 °F 19 °F -9 °F (1978)
Degree Days  
Heating Degree Days 60 37  
Month to date heating degree days 1066 1131  
Since 1 July heating degree days 2357 2747  
Cooling Degree Days 0 0  
Month to date cooling degree days 0 0  
Year to date cooling degree days 674 507  
Moisture  
Dew Point 2 °F    
Average Humidity 82    
Maximum Humidity 91    
Minimum Humidity 73    
Precipitation  
Precipitation 0.00 in 0.02 in 0.22 in (1998)
Month to date precipitation 0.86 0.82  
Year to date precipitation 5.74 8.92  
Sea Level Pressure  
Sea Level Pressure 30.42 in    
Wind  
Wind Speed 8 mph (SSE)    
Max Wind Speed 20 mph    
Max Gust Speed 24 mph    
T = Trace of Precipitation, MM = Missing Value Source: NWS Daily Summary

Daily Weather History Graph

Daily Weather History Graph

Search for Another Location

Airport or City:

Trip Planner

Search our weather history database for the weather conditions in past years. The results will help you decide how hot, cold, wet, or windy it might be!

Date:

Astronomy

Dec. 31, 2012 Rise Set
Actual Time 7:21 AM PST 4:28 PM PST
Civil Twilight 6:49 AM PST 5:00 PM PST
Nautical Twilight 6:14 AM PST 5:35 PM PST
Astronomical Twilight 5:39 AM PST 6:10 PM PST
Moon 8:08 PM PST (12/31) 9:01 AM PST (12/31)
Length of Visible Light 10h 10m
Length of Day
9h 07m
Waning Gibbous, 89% of the Moon is Illuminated
Dec 31
Waning Gibbous
Jan 4
Last Quarter
Jan 11
New
Jan 18
First Quarter
Jan 26
Full

Hourly Weather History & Observations

Time (PST) Temp. Windchill Dew Point Humidity Pressure Visibility Wind Dir Wind Speed Gust Speed Precip Events Conditions
12:52 AM 6.1 °F -0.9 °F 3.0 °F 87% 30.36 in - WSW 3.5 mph - N/A   Unknown
1:52 AM -0.0 °F - -2.9 °F 88% 30.39 in - Calm Calm - N/A   Unknown
2:52 AM -4.0 °F -14.6 °F -8.0 °F 83% 30.42 in - SSW 4.6 mph - N/A   Unknown
3:52 AM -0.9 °F -18.3 °F -4.0 °F 87% 30.40 in - SSE 11.5 mph - N/A   Unknown
4:52 AM 1.9 °F -9.2 °F -2.0 °F 83% 30.43 in - Variable 5.8 mph - N/A   Unknown
5:52 AM 5.0 °F -11.6 °F 1.0 °F 84% 30.40 in - SSE 12.7 mph - N/A   Unknown
6:52 AM 8.1 °F -5.3 °F 3.0 °F 80% 30.38 in - SSE 9.2 mph - N/A   Unknown
7:52 AM -2.9 °F - -6.0 °F 87% 30.45 in - Calm Calm - N/A   Unknown
8:52 AM 8.1 °F - 3.0 °F 80% 30.43 in - Calm Calm - N/A   Unknown
9:52 AM 6.1 °F -5.6 °F 1.0 °F 80% 30.45 in - South 6.9 mph - N/A   Unknown
10:52 AM 14.0 °F 2.9 °F 8.1 °F 77% 30.40 in - SSE 8.1 mph - N/A   Unknown
11:52 AM 16.0 °F 4.4 °F 9.0 °F 74% 30.38 in - SW 9.2 mph - N/A   Unknown
12:52 PM 16.0 °F 3.6 °F 8.1 °F 71% 30.38 in - ESE 10.4 mph - N/A   Unknown
1:52 PM 15.1 °F -0.6 °F 8.1 °F 74% 30.40 in - SE 16.1 mph 23.0 mph N/A   Unknown
2:52 PM 12.0 °F -2.0 °F 6.1 °F 77% 30.43 in - SE 11.5 mph - N/A   Unknown
3:52 PM 14.0 °F -2.5 °F 7.0 °F 74% 30.41 in - SE 17.3 mph - N/A   Unknown
4:52 PM 12.9 °F 0.7 °F 7.0 °F 77% 30.40 in - SE 9.2 mph - N/A   Unknown
5:52 PM 10.9 °F -2.6 °F 5.0 °F 77% 30.42 in - SSE 10.4 mph - N/A   Unknown
6:52 PM 10.9 °F -4.1 °F 5.0 °F 77% 30.41 in - SE 12.7 mph - N/A   Unknown
7:52 PM 8.1 °F -0.5 °F 3.9 °F 83% 30.47 in - South 4.6 mph - N/A   Unknown
8:52 PM 5.0 °F -8.1 °F -0.0 °F 80% 30.46 in - South 8.1 mph - N/A   Unknown
9:52 PM -0.0 °F -11.6 °F -2.9 °F 88% 30.51 in - NE 5.8 mph - N/A   Unknown
10:52 PM 7.0 °F -1.7 °F 1.9 °F 80% 30.46 in - NE 4.6 mph - N/A   Unknown
11:52 PM 1.0 °F - -2.0 °F 87% 30.48 in - Calm Calm - N/A   Unknown